FENGYUN 1C DEB

Satellite information

Favourite Embed

Satellite Type and Status

DEBRISIN ORBIT

Key statistics

Satellite FENGYUN 1C DEB at a glance.

Uptime

9555

Days in orbit

Revolutions

≈ 14.3

Per day

Orbit

SSO

Sun Synchronous Orbit

Inclination

98.5

Latest

Satellite identification and parameters

Extended collection of information and parameters for FENGYUN 1C DEB.

Object identification

Identified? True

Debris? True

Object name: FENGYUN 1C DEB

International designator: 1999-025EYZ

Object number (NORAD): 46444

Object ID (CCSDS): 46444

Country: PEOPLES REPUBLIC OF CHINA (PRC)

Current information (Y/N): Y

RCS size: SMALL

Orbital parameters

Period: 100.938 minutes

Inclination: 98.5102 deg

SMA: 7181.187 km

Apoapsis: 862.632 km

Periapsis: 743.471 km

RAAN: 193.5535 deg

Eccentricy: 0.0082968

Argument of periapsis: 258.6714 deg

Mean anomaly: 169.7106 deg

Mean motion: 14.26620442 rev/day

Mean motion (dot): 0.00000831 rev/day2

B* drag term: 0.00034912 1/REarth

Two-line elements (TLE)

Creation date: July 6, 2025, 6:05 p.m.

Reference frame: TEME

Reference center: EARTH

Epoch: July 6, 2025, 6:56 a.m. UTC

TLE line 0: 0 FENGYUN 1C DEB

TLE line 1: 1 46444U 99025EYZ 25187.28956203 .00000831 00000-0 34912-3 0 9999

TLE line 2: 2 46444 98.5102 193.5535 0082968 258.6714 169.7106 14.26620442603084

Live tracking on map

Real-time ground track for satellite FENGYUN 1C DEB.

In-orbit conjunctions

A list of the most updated potential collisions computed for object FENGYUN 1C DEB.

Target Orbit TCA Probability of collision Miss distance Type
CZ-2D R/B SSO 2024-12-02 11:47:17 0.0001979547 349.0 (m) ROCKET BODY
CZ-6A DEB LEO 2024-09-23 23:48:27 0.0008897599 260.0 (m) DEBRIS
NOAA 16 DEB SSO 2024-09-22 02:19:17 0.0001089664 206.0 (m) DEBRIS

Associated space launch

Chinese polar orbiting meteorological satellite

FENGYUN 1C DEB was lifted into orbit during the mission ‘Long March 4B | Feng Yun 1C’, on board a Long March 4B space rocket.

The launch took place on May 10, 1999, 1:33 a.m. from Launch Complex 7.

For more information about the launch, click the button.

Launch to space Long March 4B | Feng Yun 1C
Long March 4B | Feng Yun 1C

Agency: N/A

Status: Launch Successful

Launch date: May 10, 1999, 1:33 a.m. UTC

Rocket: Long March 4B

Launch pad: Launch Complex 7

Location: Taiyuan Satellite Launch Center, People's Republic of China

...

Latest news about this satellite

There are no fresh news available about this satellite. Check back as we update our databases every day.


Newsletter sign-up

Weekly statistics, charts and insights to help you stay on top of the space industry.